Logansport, IN

3:26 AM EST on January 20, 2017 (GMT -0500)
Logansport Municipal

Weather History for KGGP - January, 2013

Change the Weather History Date:

Saturday, January 5, 2013

  Actual Average Record
Temperature  
Mean Temperature 25 °F -  
Max Temperature 33 °F 46 °F 33 °F (2013)
Min Temperature 17 °F 28 °F 1 °F (2015)
Degree Days  
Heating Degree Days 40    
Moisture  
Dew Point 23 °F    
Average Humidity 85    
Maximum Humidity 93    
Minimum Humidity 69    
Precipitation  
Precipitation 0.00 in - - ()
Sea Level Pressure  
Sea Level Pressure 30.21 in    
Wind  
Wind Speed 10 mph (SSW)    
Max Wind Speed 15 mph    
Max Gust Speed 22 mph    
Visibility 9 miles    
Events Snow    
Averages and records for this station are not official NWS values.
T = Trace of Precipitation, MM = Missing Value Source: NWS Daily Summary

Daily Weather History Graph

Daily Weather History Graph

Search for Another Location

Airport or City:

Trip Planner

Search our weather history database for the weather conditions in past years. The results will help you decide how hot, cold, wet, or windy it might be!

Date:

Astronomy

Jan. 05, 2013 Rise Set
Actual Time 8:09 AM EST 5:32 PM EST
Civil Twilight 7:39 AM EST 6:03 PM EST
Nautical Twilight 7:04 AM EST 6:37 PM EST
Astronomical Twilight 6:31 AM EST 7:10 PM EST
Moon 1:14 AM EST (1/5) 12:23 PM EST (1/5)
Length of Visible Light 10h 24m
Length of Day
9h 23m
Last Quarter, 44% of the Moon is Illuminated
Jan 5
Last Quarter
Jan 11
New
Jan 18
First Quarter
Jan 26
Full
Feb 3
Last Quarter

Hourly Weather History & Observations

Time (EST) Temp. Windchill Dew Point Humidity Pressure Visibility Wind Dir Wind Speed Gust Speed Precip Events Conditions
12:15 AM 23.0 °F 12.4 °F 19.4 °F 86% 30.28 in 7.0 mi SW 10.4 mph - N/A   Clear
12:35 AM 23.0 °F 12.4 °F 19.4 °F 86% 30.28 in 10.0 mi SW 10.4 mph - N/A   Clear
12:55 AM 23.0 °F 13.1 °F 19.4 °F 86% 30.28 in 10.0 mi SW 9.2 mph - N/A   Clear
1:15 AM 23.0 °F 13.1 °F 19.4 °F 86% 30.28 in 10.0 mi SW 9.2 mph - N/A   Clear
1:35 AM 21.2 °F 11.7 °F 17.6 °F 86% 30.27 in 7.0 mi SSW 8.1 mph - N/A   Clear
1:55 AM 21.2 °F 10.9 °F 17.6 °F 86% 30.28 in 7.0 mi SW 9.2 mph - N/A   Clear
2:15 AM 23.0 °F 11.7 °F 19.4 °F 86% 30.28 in 10.0 mi SW 11.5 mph - N/A   Clear
2:35 AM 23.0 °F 11.7 °F 19.4 °F 86% 30.28 in 10.0 mi SW 11.5 mph - N/A   Clear
2:55 AM 23.0 °F 11.7 °F 19.4 °F 86% 30.30 in 10.0 mi SW 11.5 mph - N/A   Clear
3:15 AM 21.2 °F 10.9 °F 19.4 °F 93% 30.30 in 10.0 mi SW 9.2 mph - N/A   Clear
3:35 AM 21.2 °F 12.6 °F 17.6 °F 86% 30.30 in 10.0 mi SW 6.9 mph - N/A   Clear
3:55 AM 19.4 °F 11.5 °F 17.6 °F 93% 30.30 in 7.0 mi SW 5.8 mph - N/A   Clear
4:15 AM 21.2 °F 12.6 °F 19.4 °F 93% 30.29 in 10.0 mi SW 6.9 mph - N/A   Clear
4:35 AM 21.2 °F 13.6 °F 19.4 °F 93% 30.29 in 10.0 mi SSW 5.8 mph - N/A   Clear
4:55 AM 19.4 °F 11.5 °F 15.8 °F 86% 30.28 in 7.0 mi SSW 5.8 mph - N/A   Clear
5:15 AM 17.6 °F 9.3 °F 15.8 °F 93% 30.28 in 7.0 mi SSW 5.8 mph - N/A   Clear
5:35 AM 17.6 °F 7.3 °F 14.0 °F 86% 30.28 in 7.0 mi SSW 8.1 mph - N/A   Clear
5:55 AM 19.4 °F 9.5 °F 17.6 °F 93% 30.28 in 7.0 mi SSW 8.1 mph - N/A   Clear
6:15 AM 17.6 °F 7.3 °F 15.8 °F 93% 30.28 in 7.0 mi South 8.1 mph - N/A   Clear
6:55 AM 17.6 °F 10.7 °F 15.8 °F 93% 30.27 in 7.0 mi South 4.6 mph - N/A   Clear
8:15 AM 17.6 °F 7.3 °F 14.0 °F 86% 30.28 in 7.0 mi South 8.1 mph - N/A   Clear
8:35 AM 17.6 °F 8.2 °F 14.0 °F 86% 30.28 in 7.0 mi SSW 6.9 mph - N/A   Clear
8:55 AM 19.4 °F 10.4 °F 17.6 °F 93% 30.28 in 7.0 mi South 6.9 mph - N/A   Clear
9:35 AM 23.0 °F 14.7 °F 19.4 °F 86% 30.28 in 10.0 mi South 6.9 mph - N/A   Clear
9:55 AM 24.8 °F 16.1 °F 19.4 °F 80% 30.27 in 10.0 mi South 8.1 mph - N/A   Clear
10:15 AM 26.6 °F 20.0 °F 21.2 °F 80% 30.26 in 10.0 mi South 5.8 mph - N/A   Clear
10:35 AM 28.4 °F 20.4 °F 21.2 °F 74% 30.26 in 10.0 mi South 8.1 mph - N/A   Clear
10:55 AM 30.2 °F 22.6 °F 23.0 °F 75% 30.27 in 10.0 mi SSW 8.1 mph - N/A   Clear
11:15 AM 30.2 °F 21.9 °F 23.0 °F 75% 30.27 in 10.0 mi SSW 9.2 mph - N/A   Clear
11:35 AM 30.2 °F 21.3 °F 23.0 °F 75% 30.26 in 10.0 mi SSW 10.4 mph - N/A   Clear
11:55 AM 32.0 °F 23.6 °F 23.0 °F 69% 30.25 in 10.0 mi SSW 10.4 mph - N/A   Clear
12:15 PM 32.0 °F 24.2 °F 23.0 °F 69% 30.24 in 10.0 mi SSW 9.2 mph - N/A   Clear
12:35 PM 32.0 °F 24.8 °F 26.6 °F 80% 30.22 in 10.0 mi SSW 8.1 mph - N/A   Clear
12:55 PM 32.0 °F 23.6 °F 26.6 °F 80% 30.20 in 10.0 mi South 10.4 mph - N/A   Clear
1:15 PM 32.0 °F 24.2 °F 26.6 °F 80% 30.19 in 10.0 mi South 9.2 mph - N/A   Clear
1:35 PM 32.0 °F 23.6 °F 26.6 °F 80% 30.18 in 10.0 mi South 10.4 mph - N/A   Clear
1:55 PM 33.8 °F 24.8 °F 26.6 °F 75% 30.17 in 10.0 mi SSW 12.7 mph - N/A   Clear
2:35 PM 33.8 °F 26.4 °F 26.6 °F 75% 30.15 in 10.0 mi SSW 9.2 mph - N/A   Overcast
2:55 PM 33.8 °F 25.8 °F 26.6 °F 75% 30.15 in 10.0 mi SW 10.4 mph - N/A   Overcast
3:15 PM 33.8 °F 25.8 °F 28.4 °F 81% 30.14 in 10.0 mi SW 10.4 mph - N/A   Overcast
3:55 PM 33.8 °F 23.9 °F 28.4 °F 81% 30.17 in 7.0 mi WSW 15.0 mph 21.9 mph N/A Snow Light Snow
4:15 PM 32.0 °F 22.5 °F 28.4 °F 87% 30.16 in 3.0 mi WSW 12.7 mph - N/A Snow Light Snow
4:35 PM 32.0 °F 23.6 °F 28.4 °F 87% 30.16 in 7.0 mi SW 10.4 mph - N/A   Overcast
5:15 PM 32.0 °F 23.6 °F 28.4 °F 87% 30.15 in 7.0 mi SSW 10.4 mph - N/A Snow Light Snow
5:55 PM 32.0 °F 24.2 °F 28.4 °F 87% 30.14 in 10.0 mi SSW 9.2 mph - N/A   Overcast
6:15 PM 32.0 °F 24.8 °F 28.4 °F 87% 30.14 in 10.0 mi South 8.1 mph - N/A   Overcast
6:35 PM 32.0 °F 24.2 °F 28.4 °F 87% 30.13 in 10.0 mi South 9.2 mph - N/A   Overcast
7:15 PM 32.0 °F 22.5 °F 28.4 °F 87% 30.13 in 10.0 mi South 12.7 mph - N/A   Mostly Cloudy
7:55 PM 32.0 °F 22.1 °F 28.4 °F 87% 30.13 in 10.0 mi SSW 13.8 mph - N/A   Overcast
8:15 PM 32.0 °F 22.1 °F 28.4 °F 87% 30.12 in 10.0 mi SSW 13.8 mph - N/A   Overcast
8:55 PM 32.0 °F 22.1 °F 28.4 °F 87% 30.12 in 10.0 mi SSW 13.8 mph - N/A   Overcast
9:15 PM 32.0 °F 22.5 °F 28.4 °F 87% 30.12 in 10.0 mi SSW 12.7 mph - N/A   Overcast
9:35 PM 32.0 °F 23.0 °F 28.4 °F 87% 30.11 in 10.0 mi SSW 11.5 mph - N/A   Overcast
9:55 PM 32.0 °F 22.5 °F 28.4 °F 87% 30.10 in 10.0 mi SSW 12.7 mph - N/A   Overcast
10:15 PM 32.0 °F 22.5 °F 28.4 °F 87% 30.10 in 10.0 mi SSW 12.7 mph - N/A   Overcast
10:35 PM 32.0 °F 22.5 °F 30.2 °F 93% 30.09 in 10.0 mi SSW 12.7 mph - N/A   Overcast
10:55 PM 32.0 °F 21.6 °F 30.2 °F 93% 30.09 in 10.0 mi SSW 15.0 mph - N/A   Overcast
11:15 PM 32.0 °F 21.6 °F 30.2 °F 93% 30.08 in 10.0 mi SSW 15.0 mph - N/A   Overcast
11:35 PM 32.0 °F 23.0 °F 30.2 °F 93% 30.08 in 10.0 mi SSW 11.5 mph - N/A   Overcast
11:55 PM 33.8 °F 25.3 °F 30.2 °F 87% 30.07 in 10.0 mi SW 11.5 mph - N/A   Overcast